GLOBALSTAR M026 [-]

Last updated on July 6, 2021, 3:36 p.m. UTC

1 25873U 99041B   21186.94236566 -.00000044  00000-0  72487-3 0  9997
2 25873  51.9977 164.3458 0000883 346.5284  24.9155 11.06796236988784
UTC
Height (km)
Latitude
Longitude
Inclination
Orbital Period
UTC large
Height (km)
Speed (km/s)
/
Latitude / Longitude
Inclination (degrees)
Orbital Period (minutes)
Azimuth
Elevation
Range (km)
Doppler Factor
iOS Compass Heading
iOS Angle